| time (UTC) | temp F | wind direction | speed MPH | gust MPH | rain 1hr in | rain 24hr in | rain mn in | humidity % | barometer mb |
| 20260507103008 | 71 | 116 | 1.0 | 6.0 | 0.00 | 0.00 | 0.00 | 96 | 1014.7 |
| 20260507101507 | 70 | 125 | 0.0 | 0.0 | 0.00 | 0.00 | 0.00 | 95 | 1014.7 |
| 20260507100003 | 70 | 125 | 0.0 | 0.0 | 0.00 | 0.00 | 0.00 | 95 | 1014.4 |
| 20260507094501 | 71 | 125 | 0.0 | 2.0 | 0.00 | 0.00 | 0.00 | 95 | 1014.2 |
| 20260507093100 | 71 | 125 | 0.0 | 2.0 | 0.00 | 0.00 | 0.00 | 94 | 1014.3 |
| 20260507091559 | 71 | 165 | 0.0 | 2.0 | 0.00 | 0.00 | 0.00 | 94 | 1014.2 |
| 20260507090057 | 72 | 165 | 1.0 | 2.0 | 0.00 | 0.00 | 0.00 | 93 | 1014.3 |
| 20260507084601 | 72 | 165 | 1.0 | 4.0 | 0.00 | 0.00 | 0.00 | 92 | 1014.2 |
| 20260507083051 | 73 | 165 | 2.0 | 7.0 | 0.00 | 0.00 | 0.00 | 92 | 1014.1 |
| 20260507081549 | 74 | 193 | 2.0 | 8.0 | 0.00 | 0.00 | 0.00 | 92 | 1014.1 |
| 20260507080046 | 74 | 145 | 4.0 | 10.0 | 0.00 | 0.00 | 0.00 | 92 | 1014.2 |
| 20260507074548 | 74 | 178 | 3.0 | 12.0 | 0.00 | 0.00 | 0.00 | 92 | 1014.2 |
| 20260507073054 | 74 | 154 | 3.0 | 9.0 | 0.00 | 0.00 | 0.00 | 92 | 1014.3 |
| 20260507071541 | 75 | 150 | 3.0 | 8.0 | 0.00 | 0.00 | 0.00 | 91 | 1014.3 |
| 20260507070042 | 75 | 135 | 3.0 | 8.0 | 0.00 | 0.00 | 0.00 | 91 | 1014.5 |
| 20260507064544 | 75 | 174 | 3.0 | 9.0 | 0.00 | 0.00 | 0.00 | 90 | 1014.6 |
| 20260507063045 | 75 | 130 | 5.0 | 11.0 | 0.00 | 0.00 | 0.00 | 90 | 1014.6 |
| 20260507061538 | 76 | 101 | 5.0 | 11.0 | 0.00 | 0.00 | 0.00 | 89 | 1014.7 |
| 20260507060032 | 76 | 99 | 5.0 | 11.0 | 0.00 | 0.00 | 0.00 | 88 | 1014.9 |
| 20260507054529 | 76 | 146 | 5.0 | 10.0 | 0.00 | 0.00 | 0.00 | 87 | 1015.1 |
| 20260507053033 | 76 | 138 | 3.0 | 11.0 | 0.00 | 0.00 | 0.00 | 87 | 1015.1 |
| 20260507051527 | 77 | 110 | 4.0 | 9.0 | 0.00 | 0.00 | 0.00 | 86 | 1015.3 |
| 20260507050024 | 77 | 124 | 4.0 | 10.0 | 0.00 | 0.00 | 0.00 | 85 | 1015.5 |
| 20260507044523 | 77 | 155 | 5.0 | 9.0 | 0.00 | 0.00 | 0.00 | 84 | 1015.6 |
| 20260507043018 | 77 | 163 | 3.0 | 9.0 | 0.00 | 0.00 | 0.00 | 83 | 1015.7 |
| 20260507041514 | 76 | 144 | 4.0 | 9.0 | 0.00 | 0.00 | 0.00 | 85 | 1015.8 |
| 20260507040010 | 74 | 144 | 2.0 | 3.0 | 0.00 | 0.00 | 0.00 | 87 | 1016.0 |
| 20260507034511 | 74 | 144 | 1.0 | 3.0 | 0.00 | 0.00 | 0.00 | 86 | 1016.1 |
| 20260507033009 | 75 | 144 | 0.0 | 0.0 | 0.00 | 0.00 | 0.00 | 85 | 1016.1 |
| 20260507031508 | 75 | 144 | 0.0 | 0.0 | 0.00 | 0.00 | 0.00 | 85 | 1016.1 |
| 20260507030008 | 75 | 144 | 0.0 | 0.0 | 0.00 | 0.00 | 0.00 | 86 | 1016.2 |
| 20260507024508 | 75 | 144 | 0.0 | 0.0 | 0.00 | 0.00 | 0.00 | 85 | 1016.2 |
| 20260507023006 | 75 | 144 | 0.0 | 0.0 | 0.00 | 0.00 | 0.00 | 85 | 1016.2 |
| 20260507021505 | 77 | 144 | 1.0 | 2.0 | 0.00 | 0.00 | 0.00 | 82 | 1016.1 |
| 20260507020003 | 78 | 144 | 0.0 | 0.0 | 0.00 | 0.00 | 0.00 | 80 | 1016.0 |
| 20260507014503 | 80 | 144 | 0.0 | 2.0 | 0.00 | 0.00 | 0.00 | 75 | 1015.7 |
| 20260507013006 | 80 | 144 | 2.0 | 4.0 | 0.00 | 0.00 | 0.00 | 72 | 1015.6 |
| 20260507011500 | 81 | 138 | 1.0 | 4.0 | 0.00 | 0.00 | 0.00 | 72 | 1015.5 |
| 20260507010059 | 81 | 156 | 0.0 | 2.0 | 0.00 | 0.00 | 0.00 | 72 | 1015.4 |
| 20260507004559 | 81 | 156 | 1.0 | 3.0 | 0.00 | 0.00 | 0.00 | 71 | 1015.3 |
| 20260507003059 | 82 | 156 | 0.0 | 3.0 | 0.00 | 0.00 | 0.00 | 68 | 1015.1 |
| 20260507001611 | 83 | 92 | 3.0 | 7.0 | 0.00 | 0.00 | 0.00 | 67 | 1015.0 |
| 20260507000057 | 83 | 175 | 4.0 | 7.0 | 0.00 | 0.00 | 0.00 | 68 | 1014.8 |
| 20260506234602 | 83 | 178 | 1.0 | 5.0 | 0.00 | 0.00 | 0.00 | 69 | 1014.6 |
| 20260506233056 | 84 | 147 | 2.0 | 7.0 | 0.00 | 0.00 | 0.00 | 68 | 1014.2 |
| 20260506231554 | 85 | 140 | 2.0 | 9.0 | 0.00 | 0.00 | 0.00 | 66 | 1014.0 |
| 20260506230051 | 86 | 154 | 2.0 | 7.0 | 0.00 | 0.00 | 0.00 | 65 | 1013.8 |
| 20260506224605 | 87 | 120 | 4.0 | 10.0 | 0.00 | 0.00 | 0.00 | 63 | 1013.6 |
| 20260506223054 | 88 | 70 | 6.0 | 11.0 | 0.00 | 0.00 | 0.00 | 62 | 1013.4 |
| 20260506221547 | 89 | 140 | 4.0 | 13.0 | 0.00 | 0.00 | 0.00 | 62 | 1013.0 |
| 20260506214546 | 89 | 116 | 5.0 | 11.0 | 0.00 | 0.00 | 0.00 | 61 | 1012.7 |
| 20260506213045 | 90 | 150 | 4.0 | 13.0 | 0.00 | 0.00 | 0.00 | 61 | 1012.5 |
| 20260506211552 | 91 | 113 | 5.0 | 12.0 | 0.00 | 0.00 | 0.00 | 58 | 1012.4 |
| 20260506210044 | 93 | 95 | 5.0 | 12.0 | 0.00 | 0.00 | 0.00 | 57 | 1012.2 |
| 20260506204543 | 93 | 134 | 6.0 | 12.0 | 0.00 | 0.00 | 0.00 | 55 | 1012.2 |
| 20260506203041 | 93 | 126 | 4.0 | 14.0 | 0.00 | 0.00 | 0.00 | 55 | 1012.2 |
| 20260506201541 | 94 | 109 | 7.0 | 11.0 | 0.00 | 0.00 | 0.00 | 54 | 1012.3 |
| 20260506200040 | 95 | 67 | 5.0 | 11.0 | 0.00 | 0.00 | 0.00 | 53 | 1012.3 |
| 20260506194543 | 94 | 93 | 5.0 | 12.0 | 0.00 | 0.00 | 0.00 | 51 | 1012.4 |
| 20260506193035 | 94 | 138 | 6.0 | 11.0 | 0.00 | 0.00 | 0.00 | 54 | 1012.6 |
| 20260506191533 | 94 | 90 | 6.0 | 11.0 | 0.00 | 0.00 | 0.00 | 54 | 1012.6 |
| 20260506190031 | 94 | 112 | 3.0 | 13.0 | 0.00 | 0.00 | 0.00 | 56 | 1012.7 |
| 20260506184531 | 93 | 97 | 7.0 | 15.0 | 0.00 | 0.00 | 0.00 | 57 | 1012.9 |
| 20260506183030 | 93 | 144 | 9.0 | 16.0 | 0.00 | 0.00 | 0.00 | 56 | 1013.0 |
| 20260506181525 | 92 | 96 | 6.0 | 17.0 | 0.00 | 0.00 | 0.00 | 58 | 1013.2 |
| 20260506180023 | 92 | 123 | 6.0 | 16.0 | 0.00 | 0.00 | 0.00 | 58 | 1013.3 |
| 20260506174520 | 92 | 78 | 7.0 | 14.0 | 0.00 | 0.00 | 0.00 | 56 | 1013.5 |
| 20260506173021 | 92 | 148 | 8.0 | 17.0 | 0.00 | 0.00 | 0.00 | 60 | 1013.9 |
| 20260506171522 | 91 | 128 | 8.0 | 18.0 | 0.00 | 0.00 | 0.00 | 58 | 1014.2 |
| 20260506170016 | 91 | 174 | 7.0 | 17.0 | 0.00 | 0.00 | 0.00 | 61 | 1014.2 |
| 20260506164514 | 91 | 126 | 8.0 | 14.0 | 0.00 | 0.00 | 0.00 | 60 | 1014.4 |
| 20260506163007 | 90 | 117 | 8.0 | 17.0 | 0.00 | 0.00 | 0.00 | 62 | 1014.6 |
| 20260506161506 | 90 | 63 | 8.0 | 18.0 | 0.00 | 0.00 | 0.00 | 61 | 1014.8 |
| 20260506160004 | 90 | 92 | 5.0 | 17.0 | 0.00 | 0.00 | 0.00 | 63 | 1015.0 |
| 20260506154505 | 90 | 161 | 7.0 | 16.0 | 0.00 | 0.00 | 0.00 | 61 | 1015.1 |
| 20260506153058 | 89 | 144 | 7.0 | 18.0 | 0.00 | 0.00 | 0.00 | 62 | 1015.1 |
| 20260506151554 | 89 | 122 | 7.0 | 25.0 | 0.00 | 0.00 | 0.00 | 61 | 1015.2 |
| 20260506150051 | 88 | 68 | 9.0 | 17.0 | 0.00 | 0.00 | 0.00 | 64 | 1015.3 |
| 20260506144550 | 88 | 132 | 6.0 | 19.0 | 0.00 | 0.00 | 0.00 | 64 | 1015.5 |
| 20260506143042 | 87 | 144 | 9.0 | 20.0 | 0.00 | 0.00 | 0.00 | 64 | 1015.6 |
| 20260506141538 | 86 | 103 | 10.0 | 20.0 | 0.00 | 0.00 | 0.00 | 66 | 1015.8 |
| 20260506140036 | 85 | 169 | 8.0 | 19.0 | 0.00 | 0.00 | 0.00 | 70 | 1015.8 |
| 20260506134529 | 84 | 149 | 9.0 | 21.0 | 0.00 | 0.00 | 0.00 | 71 | 1015.9 |
| 20260506133026 | 83 | 110 | 8.0 | 18.0 | 0.00 | 0.00 | 0.00 | 74 | 1016.1 |
| 20260506131539 | 82 | 150 | 7.0 | 17.0 | 0.00 | 0.00 | 0.00 | 75 | 1016.0 |
| 20260506130027 | 81 | 113 | 6.0 | 14.0 | 0.00 | 0.00 | 0.00 | 77 | 1016.1 |
| 20260506124514 | 80 | 109 | 7.0 | 14.0 | 0.00 | 0.00 | 0.00 | 78 | 1016.1 |
| 20260506123008 | 79 | 144 | 8.0 | 16.0 | 0.00 | 0.00 | 0.00 | 79 | 1016.1 |
| 20260506121505 | 78 | 141 | 5.0 | 14.0 | 0.00 | 0.00 | 0.00 | 82 | 1016.4 |
| 20260506120100 | 77 | 189 | 2.0 | 7.0 | 0.00 | 0.00 | 0.00 | 87 | 1016.4 |
| 20260506114558 | 75 | 78 | 1.0 | 3.0 | 0.00 | 0.00 | 0.00 | 93 | 1016.4 |
| 20260506113052 | 73 | 98 | 0.0 | 0.0 | 0.00 | 0.00 | 0.00 | 96 | 1016.2 |
| 20260506111547 | 71 | 98 | 0.0 | 0.0 | 0.00 | 0.00 | 0.00 | 97 | 1016.1 |
| 20260506110044 | 70 | 51 | 0.0 | 1.0 | 0.00 | 0.00 | 0.00 | 97 | 1016.0 |
| 20260506104546 | 69 | 51 | 0.0 | 0.0 | 0.00 | 0.00 | 0.00 | 96 | 1016.0 |